| time (UTC) | temp F | wind direction | speed knots | gust knots | rain 1hr in | rain 24hr in | rain mn in | humidity % | barometer mb |
| 20260505124605 | 52 | 112 | 0.9 | 2.6 | 0.00 | 0.20 | 0.11 | 96 | 1005.1 |
| 20260505124105 | 52 | 135 | 1.7 | 2.6 | 0.00 | 0.20 | 0.11 | 96 | 1005.1 |
| 20260505122604 | 52 | 148 | 0.9 | 4.3 | 0.00 | 0.20 | 0.11 | 96 | 1004.7 |
| 20260505122105 | 52 | 135 | 0.9 | 2.6 | 0.00 | 0.20 | 0.11 | 96 | 1004.9 |
| 20260505121604 | 52 | 135 | 0.9 | 1.7 | 0.00 | 0.20 | 0.11 | 96 | 1004.9 |
| 20260505121104 | 52 | 135 | 0.0 | 1.7 | 0.00 | 0.20 | 0.11 | 96 | 1005.1 |
| 20260505120604 | 52 | 112 | 0.0 | 0.9 | 0.00 | 0.20 | 0.11 | 96 | 1005.1 |
| 20260505120104 | 52 | 112 | 0.0 | 2.6 | 0.00 | 0.20 | 0.11 | 96 | 1005.1 |
| 20260505115604 | 52 | 135 | 0.9 | 2.6 | 0.00 | 0.20 | 0.11 | 96 | 1005.1 |
| 20260505114605 | 52 | 135 | 0.0 | 2.6 | 0.00 | 0.20 | 0.11 | 96 | 1005.1 |
| 20260505114105 | 52 | 135 | 0.0 | 1.7 | 0.00 | 0.20 | 0.11 | 95 | 1005.1 |
| 20260505113603 | 52 | 93 | 0.9 | 2.6 | 0.00 | 0.20 | 0.11 | 95 | 1005.1 |
| 20260505113104 | 52 | 112 | 0.9 | 1.7 | 0.00 | 0.20 | 0.11 | 95 | 1004.9 |
| 20260505112604 | 52 | 112 | 0.0 | 1.7 | 0.00 | 0.20 | 0.11 | 95 | 1004.9 |
| 20260505112104 | 52 | 91 | 0.9 | 2.6 | 0.00 | 0.20 | 0.11 | 96 | 1005.1 |
| 20260505111604 | 52 | 135 | 0.9 | 2.6 | 0.00 | 0.20 | 0.11 | 96 | 1005.1 |
| 20260505111104 | 52 | 134 | 1.7 | 4.3 | 0.00 | 0.20 | 0.11 | 96 | 1004.7 |
| 20260505110604 | 52 | 143 | 1.7 | 2.6 | 0.00 | 0.20 | 0.11 | 95 | 1004.9 |
| 20260505110104 | 52 | 135 | 1.7 | 2.6 | 0.00 | 0.20 | 0.11 | 95 | 1005.1 |
| 20260505102105 | 52 | 155 | 0.9 | 2.6 | 0.01 | 0.20 | 0.11 | 95 | 1005.1 |
| 20260505101605 | 52 | 135 | 0.0 | 0.9 | 0.01 | 0.20 | 0.11 | 95 | 1005.4 |
| 20260505100604 | 52 | 130 | 0.0 | 0.9 | 0.01 | 0.20 | 0.11 | 95 | 1005.4 |
| 20260505100104 | 52 | 135 | 0.0 | 1.7 | 0.01 | 0.20 | 0.11 | 95 | 1005.4 |
| 20260505095604 | 52 | 135 | 0.0 | 1.7 | 0.01 | 0.20 | 0.11 | 95 | 1005.1 |
| 20260505095104 | 52 | 135 | 0.9 | 2.6 | 0.01 | 0.20 | 0.11 | 95 | 1005.1 |
| 20260505094604 | 52 | 123 | 0.9 | 1.7 | 0.01 | 0.20 | 0.11 | 95 | 1005.1 |
| 20260505093604 | 52 | 135 | 0.0 | 1.7 | 0.02 | 0.20 | 0.11 | 95 | 1005.4 |
| 20260505093104 | 52 | 123 | 0.0 | 1.7 | 0.03 | 0.20 | 0.11 | 95 | 1005.4 |
| 20260505092604 | 52 | 112 | 0.9 | 1.7 | 0.02 | 0.19 | 0.10 | 95 | 1005.4 |
| 20260505092104 | 52 | 112 | 0.9 | 2.6 | 0.02 | 0.19 | 0.10 | 95 | 1005.8 |
| 20260505091604 | 52 | 185 | 0.9 | 1.7 | 0.02 | 0.19 | 0.10 | 94 | 1005.8 |
| 20260505091104 | 52 | 135 | 0.0 | 2.6 | 0.02 | 0.19 | 0.10 | 94 | 1005.8 |
| 20260505090604 | 52 | 143 | 0.9 | 1.7 | 0.02 | 0.19 | 0.10 | 94 | 1005.8 |
| 20260505090104 | 52 | 106 | 0.9 | 1.7 | 0.02 | 0.19 | 0.10 | 94 | 1005.4 |
| 20260505085604 | 52 | 135 | 0.9 | 1.7 | 0.03 | 0.19 | 0.10 | 94 | 1005.4 |
| 20260505085104 | 52 | 135 | 0.0 | 4.3 | 0.04 | 0.19 | 0.10 | 94 | 1005.4 |
| 20260505084604 | 52 | 135 | 0.0 | 0.0 | 0.05 | 0.19 | 0.10 | 94 | 1005.8 |
| 20260505083604 | 52 | 135 | 0.0 | 0.0 | 0.05 | 0.18 | 0.09 | 94 | 1006.1 |
| 20260505083105 | 52 | 135 | 0.0 | 1.7 | 0.04 | 0.17 | 0.08 | 94 | 1006.1 |
| 20260505082105 | 52 | 135 | 0.0 | 0.9 | 0.05 | 0.17 | 0.08 | 94 | 1006.1 |
| 20260505081604 | 52 | 91 | 0.0 | 0.9 | 0.06 | 0.17 | 0.08 | 93 | 1006.1 |
| 20260505081103 | 52 | 112 | 0.0 | 1.7 | 0.07 | 0.17 | 0.08 | 93 | 1005.8 |
| 20260505080604 | 52 | 112 | 0.0 | 0.0 | 0.07 | 0.17 | 0.08 | 93 | 1005.8 |
| 20260505080104 | 52 | 112 | 0.0 | 0.9 | 0.07 | 0.17 | 0.08 | 93 | 1005.8 |
| 20260505075604 | 52 | 157 | 0.0 | 0.0 | 0.07 | 0.16 | 0.07 | 93 | 1005.8 |
| 20260505075104 | 52 | 157 | 0.0 | 0.0 | 0.06 | 0.15 | 0.06 | 93 | 1006.1 |
| 20260505074605 | 52 | 90 | 0.0 | 0.0 | 0.05 | 0.14 | 0.05 | 93 | 1006.1 |
| 20260505074104 | 52 | 157 | 0.0 | 0.9 | 0.05 | 0.14 | 0.05 | 93 | 1006.1 |
| 20260505073604 | 52 | 112 | 0.0 | 1.7 | 0.04 | 0.13 | 0.04 | 93 | 1006.1 |
| 20260505073104 | 52 | 243 | 0.0 | 0.9 | 0.05 | 0.13 | 0.04 | 93 | 1006.1 |
| 20260505072604 | 52 | 67 | 0.0 | 0.0 | 0.05 | 0.13 | 0.04 | 93 | 1006.1 |
| 20260505072104 | 52 | 67 | 0.0 | 0.0 | 0.04 | 0.12 | 0.03 | 93 | 1006.4 |
| 20260505071604 | 52 | 67 | 0.0 | 0.9 | 0.03 | 0.11 | 0.02 | 93 | 1006.1 |
| 20260505071105 | 52 | 112 | 0.0 | 0.9 | 0.02 | 0.10 | 0.01 | 93 | 1006.1 |
| 20260505070604 | 52 | 112 | 0.0 | 1.7 | 0.02 | 0.10 | 0.01 | 93 | 1006.1 |
| 20260505070103 | 52 | 225 | 0.0 | 0.0 | 0.02 | 0.10 | 0.10 | 93 | 1006.1 |
| 20260505065605 | 52 | 225 | 0.0 | 0.0 | 0.02 | 0.10 | 0.10 | 93 | 1006.1 |
| 20260505065104 | 52 | 259 | 0.0 | 2.6 | 0.02 | 0.09 | 0.09 | 93 | 1006.4 |
| 20260505063603 | 52 | 246 | 1.7 | 4.3 | 0.02 | 0.09 | 0.09 | 93 | 1006.3 |
| 20260505062604 | 52 | 261 | 2.6 | 6.1 | 0.03 | 0.08 | 0.08 | 93 | 1006.1 |
| 20260505062105 | 52 | 247 | 0.9 | 2.6 | 0.03 | 0.08 | 0.08 | 93 | 1006.1 |
| 20260505061605 | 52 | 270 | 0.0 | 0.0 | 0.03 | 0.08 | 0.08 | 93 | 1006.1 |
| 20260505061105 | 52 | 270 | 0.0 | 0.9 | 0.03 | 0.08 | 0.08 | 93 | 1005.9 |
| 20260505060605 | 53 | 225 | 0.0 | 0.0 | 0.03 | 0.08 | 0.08 | 93 | 1005.8 |
| 20260505060106 | 53 | 260 | 0.0 | 1.7 | 0.04 | 0.08 | 0.08 | 93 | 1005.8 |
| 20260505055606 | 53 | 279 | 0.0 | 0.0 | 0.04 | 0.08 | 0.08 | 92 | 1005.9 |
| 20260505055105 | 53 | 270 | 0.0 | 0.9 | 0.03 | 0.07 | 0.07 | 92 | 1005.8 |
| 20260505054606 | 53 | 247 | 0.9 | 1.7 | 0.04 | 0.07 | 0.07 | 92 | 1005.8 |
| 20260505054106 | 53 | 247 | 0.0 | 1.7 | 0.04 | 0.07 | 0.07 | 92 | 1006.0 |
| 20260505053606 | 53 | 267 | 0.0 | 1.7 | 0.04 | 0.07 | 0.07 | 92 | 1005.9 |
| 20260505053105 | 53 | 247 | 0.0 | 0.0 | 0.04 | 0.06 | 0.06 | 92 | 1006.1 |
| 20260505052605 | 53 | 247 | 0.0 | 0.0 | 0.04 | 0.05 | 0.05 | 92 | 1006.1 |
| 20260505052106 | 53 | 202 | 0.0 | 0.0 | 0.04 | 0.05 | 0.05 | 91 | 1006.1 |
| 20260505051605 | 53 | 135 | 0.0 | 1.7 | 0.04 | 0.05 | 0.05 | 91 | 1005.9 |
| 20260505051105 | 53 | 157 | 0.0 | 0.0 | 0.05 | 0.05 | 0.05 | 91 | 1006.1 |
| 20260505050606 | 53 | 164 | 0.0 | 0.9 | 0.05 | 0.05 | 0.05 | 91 | 1006.1 |
| 20260505050106 | 53 | 251 | 0.0 | 0.9 | 0.04 | 0.04 | 0.04 | 91 | 1006.1 |
| 20260505041605 | 54 | 303 | 1.7 | 4.3 | 0.01 | 0.01 | 0.01 | 88 | 1006.6 |
| 20260505041105 | 54 | 288 | 1.7 | 2.6 | 0.00 | 0.00 | 0.00 | 88 | 1006.6 |
| 20260505040605 | 55 | 304 | 1.7 | 2.6 | 0.00 | 0.00 | 0.00 | 87 | 1006.6 |
| 20260505040105 | 55 | 295 | 1.7 | 4.3 | 0.00 | 0.00 | 0.00 | 87 | 1006.6 |
| 20260505035606 | 55 | 282 | 2.6 | 5.2 | 0.00 | 0.00 | 0.00 | 87 | 1006.4 |
| 20260505035105 | 55 | 266 | 2.6 | 4.3 | 0.00 | 0.00 | 0.00 | 87 | 1006.4 |
| 20260505034606 | 55 | 313 | 1.7 | 2.6 | 0.00 | 0.00 | 0.00 | 86 | 1006.3 |
| 20260505034106 | 55 | 295 | 1.7 | 4.3 | 0.00 | 0.00 | 0.00 | 86 | 1006.1 |
| 20260505033606 | 55 | 301 | 0.9 | 2.6 | 0.00 | 0.00 | 0.00 | 86 | 1006.0 |
| 20260505033106 | 55 | 245 | 1.7 | 4.3 | 0.00 | 0.00 | 0.00 | 85 | 1005.8 |
| 20260505032105 | 55 | 255 | 4.3 | 7.8 | 0.00 | 0.00 | 0.00 | 84 | 1005.6 |
| 20260505031606 | 55 | 255 | 3.5 | 10.4 | 0.00 | 0.00 | 0.00 | 84 | 1005.4 |
| 20260505031107 | 55 | 259 | 2.6 | 6.1 | 0.00 | 0.00 | 0.00 | 83 | 1005.4 |
| 20260505030105 | 55 | 242 | 2.6 | 7.0 | 0.00 | 0.00 | 0.00 | 82 | 1005.4 |
| 20260505025605 | 55 | 274 | 2.6 | 7.0 | 0.00 | 0.00 | 0.00 | 82 | 1005.4 |
| 20260505025105 | 55 | 232 | 4.3 | 7.0 | 0.00 | 0.00 | 0.00 | 82 | 1005.4 |
| 20260505024605 | 56 | 245 | 3.5 | 7.0 | 0.00 | 0.00 | 0.00 | 82 | 1005.4 |
| 20260505024106 | 56 | 290 | 2.6 | 6.1 | 0.00 | 0.00 | 0.00 | 82 | 1005.4 |
| 20260505023606 | 56 | 277 | 2.6 | 4.3 | 0.00 | 0.00 | 0.00 | 82 | 1005.4 |
| 20260505023105 | 56 | 240 | 2.6 | 5.2 | 0.00 | 0.00 | 0.00 | 82 | 1005.4 |
| 20260505021605 | 57 | 261 | 2.6 | 4.3 | 0.00 | 0.00 | 0.00 | 80 | 1005.4 |
| 20260505021105 | 57 | 268 | 2.6 | 5.2 | 0.00 | 0.00 | 0.00 | 79 | 1005.4 |
| 20260505020605 | 57 | 266 | 2.6 | 7.0 | 0.00 | 0.00 | 0.00 | 78 | 1005.4 |
| 20260505015105 | 57 | 268 | 1.7 | 6.1 | 0.00 | 0.00 | 0.00 | 77 | 1005.4 |
| 20260505014105 | 58 | 262 | 5.2 | 10.4 | 0.00 | 0.00 | 0.00 | 76 | 1005.4 |
| 20260505013605 | 58 | 282 | 2.6 | 4.3 | 0.00 | 0.00 | 0.00 | 75 | 1005.8 |
| 20260505012105 | 58 | 284 | 2.6 | 7.8 | 0.00 | 0.00 | 0.00 | 70 | 1006.1 |
| 20260505011606 | 59 | 269 | 2.6 | 7.0 | 0.00 | 0.00 | 0.00 | 70 | 1005.9 |
| 20260505011105 | 59 | 269 | 2.6 | 7.0 | 0.00 | 0.00 | 0.00 | 69 | 1006.0 |
| 20260505010605 | 59 | 244 | 2.6 | 6.1 | 0.00 | 0.00 | 0.00 | 68 | 1005.9 |
| 20260505010105 | 59 | 252 | 3.5 | 6.1 | 0.00 | 0.00 | 0.00 | 68 | 1005.8 |
| 20260505005605 | 59 | 267 | 2.6 | 5.2 | 0.00 | 0.00 | 0.00 | 68 | 1005.8 |
| 20260505005105 | 60 | 272 | 3.5 | 7.0 | 0.00 | 0.00 | 0.00 | 67 | 1005.8 |
| 20260505004605 | 60 | 257 | 4.3 | 7.8 | 0.00 | 0.00 | 0.00 | 67 | 1005.8 |
| 20260505004105 | 60 | 286 | 2.6 | 6.1 | 0.00 | 0.00 | 0.00 | 67 | 1005.8 |
| 20260505003605 | 61 | 239 | 3.5 | 8.7 | 0.00 | 0.00 | 0.00 | 66 | 1005.5 |
| 20260505003106 | 61 | 243 | 3.5 | 8.7 | 0.00 | 0.00 | 0.00 | 65 | 1005.4 |
| 20260505002605 | 61 | 258 | 2.6 | 6.1 | 0.00 | 0.00 | 0.00 | 64 | 1005.6 |
| 20260505002105 | 61 | 270 | 4.3 | 8.7 | 0.00 | 0.00 | 0.00 | 64 | 1005.6 |
| 20260505001107 | 61 | 260 | 2.6 | 6.1 | 0.00 | 0.00 | 0.00 | 62 | 1005.8 |
| 20260505000605 | 62 | 254 | 2.6 | 5.2 | 0.00 | 0.00 | 0.00 | 62 | 1005.6 |
| 20260504235606 | 62 | 255 | 2.6 | 7.0 | 0.00 | 0.00 | 0.00 | 62 | 1005.4 |
| 20260504235105 | 62 | 272 | 2.6 | 6.1 | 0.00 | 0.00 | 0.00 | 61 | 1005.4 |
| 20260504234105 | 62 | 277 | 2.6 | 7.0 | 0.00 | 0.00 | 0.00 | 60 | 1005.4 |
| 20260504233607 | 63 | 261 | 2.6 | 6.1 | 0.00 | 0.00 | 0.00 | 60 | 1005.4 |
| 20260504233105 | 63 | 267 | 2.6 | 7.0 | 0.00 | 0.00 | 0.00 | 60 | 1005.4 |
| 20260504232605 | 63 | 241 | 3.5 | 8.7 | 0.00 | 0.00 | 0.00 | 60 | 1005.2 |
| 20260504231605 | 63 | 243 | 3.5 | 7.0 | 0.00 | 0.00 | 0.00 | 60 | 1005.3 |
| 20260504231105 | 63 | 279 | 2.6 | 5.2 | 0.00 | 0.00 | 0.00 | 60 | 1005.1 |
| 20260504230605 | 63 | 287 | 2.6 | 7.8 | 0.00 | 0.00 | 0.00 | 59 | 1005.2 |
| 20260504230106 | 63 | 265 | 3.5 | 5.2 | 0.00 | 0.00 | 0.00 | 59 | 1005.3 |
| 20260504225605 | 63 | 271 | 2.6 | 7.0 | 0.00 | 0.00 | 0.00 | 59 | 1005.4 |
| 20260504223605 | 64 | 245 | 1.7 | 5.2 | 0.00 | 0.00 | 0.00 | 60 | 1005.4 |
| 20260504222605 | 64 | 235 | 1.7 | 4.3 | 0.00 | 0.00 | 0.00 | 61 | 1005.5 |
| 20260504222105 | 64 | 156 | 0.0 | 4.3 | 0.00 | 0.00 | 0.00 | 61 | 1005.8 |
| 20260504221605 | 64 | 237 | 0.9 | 4.3 | 0.00 | 0.00 | 0.00 | 61 | 1005.4 |
| 20260504221105 | 64 | 253 | 1.7 | 4.3 | 0.00 | 0.00 | 0.00 | 61 | 1005.4 |
| 20260504220605 | 64 | 180 | 0.9 | 2.6 | 0.00 | 0.00 | 0.00 | 60 | 1005.8 |
| 20260504215605 | 64 | 257 | 1.7 | 4.3 | 0.00 | 0.00 | 0.00 | 60 | 1005.7 |
| 20260504215105 | 64 | 232 | 2.6 | 4.3 | 0.00 | 0.00 | 0.00 | 59 | 1005.4 |
| 20260504214605 | 64 | 254 | 2.6 | 7.0 | 0.00 | 0.00 | 0.00 | 61 | 1005.8 |
| 20260504214105 | 64 | 256 | 2.6 | 7.0 | 0.00 | 0.00 | 0.00 | 62 | 1005.8 |
| 20260504213606 | 63 | 248 | 2.6 | 6.1 | 0.00 | 0.00 | 0.00 | 62 | 1005.8 |
| 20260504213105 | 63 | 252 | 3.5 | 7.8 | 0.00 | 0.00 | 0.00 | 61 | 1005.8 |
| 20260504212605 | 63 | 275 | 3.5 | 7.0 | 0.00 | 0.00 | 0.00 | 61 | 1005.4 |
| 20260504212105 | 63 | 278 | 2.6 | 6.1 | 0.00 | 0.00 | 0.00 | 60 | 1005.8 |
| 20260504211605 | 63 | 298 | 2.6 | 7.8 | 0.00 | 0.00 | 0.00 | 61 | 1005.7 |
| 20260504210605 | 63 | 258 | 2.6 | 8.7 | 0.00 | 0.00 | 0.00 | 60 | 1005.7 |
| 20260504210105 | 64 | 303 | 2.6 | 5.2 | 0.00 | 0.00 | 0.00 | 60 | 1005.8 |
| 20260504205604 | 64 | 263 | 2.6 | 5.2 | 0.00 | 0.00 | 0.00 | 60 | 1005.8 |
| 20260504205104 | 64 | 270 | 2.6 | 7.0 | 0.00 | 0.00 | 0.00 | 59 | 1005.5 |
| 20260504203605 | 64 | 241 | 3.5 | 7.0 | 0.00 | 0.00 | 0.00 | 59 | 1005.7 |
| 20260504202605 | 64 | 236 | 4.3 | 10.4 | 0.00 | 0.00 | 0.00 | 60 | 1005.6 |
| 20260504201604 | 63 | 241 | 2.6 | 7.0 | 0.00 | 0.00 | 0.00 | 59 | 1005.8 |
| 20260504201105 | 63 | 240 | 3.5 | 6.1 | 0.00 | 0.00 | 0.00 | 59 | 1005.7 |
| 20260504200604 | 63 | 289 | 2.6 | 5.2 | 0.00 | 0.00 | 0.00 | 59 | 1005.8 |
| 20260504200105 | 63 | 238 | 3.5 | 7.0 | 0.00 | 0.00 | 0.00 | 59 | 1005.8 |
| 20260504195104 | 63 | 271 | 1.7 | 5.2 | 0.00 | 0.00 | 0.00 | 58 | 1005.8 |
| 20260504194605 | 63 | 279 | 2.6 | 7.0 | 0.00 | 0.00 | 0.00 | 58 | 1006.0 |
| 20260504193604 | 63 | 272 | 2.6 | 7.0 | 0.00 | 0.00 | 0.00 | 60 | 1005.8 |
| 20260504193105 | 63 | 265 | 2.6 | 6.1 | 0.00 | 0.00 | 0.00 | 61 | 1005.8 |
| 20260504192605 | 62 | 272 | 2.6 | 6.1 | 0.00 | 0.00 | 0.00 | 62 | 1005.8 |
| 20260504192105 | 62 | 242 | 2.6 | 5.2 | 0.00 | 0.00 | 0.00 | 62 | 1005.8 |
| 20260504191105 | 62 | 255 | 2.6 | 5.2 | 0.00 | 0.00 | 0.00 | 61 | 1006.1 |
| 20260504190606 | 62 | 282 | 2.6 | 6.1 | 0.00 | 0.00 | 0.00 | 62 | 1006.1 |
| 20260504190104 | 62 | 273 | 2.6 | 6.1 | 0.00 | 0.00 | 0.00 | 62 | 1006.1 |
| 20260504185605 | 62 | 261 | 1.7 | 5.2 | 0.00 | 0.00 | 0.00 | 63 | 1006.1 |
| 20260504185104 | 61 | 292 | 2.6 | 5.2 | 0.00 | 0.00 | 0.00 | 64 | 1006.1 |
| 20260504184605 | 61 | 330 | 1.7 | 5.2 | 0.00 | 0.00 | 0.00 | 65 | 1006.1 |
| 20260504184106 | 61 | 307 | 1.7 | 5.2 | 0.00 | 0.00 | 0.00 | 66 | 1006.1 |
| 20260504183605 | 61 | 240 | 3.5 | 7.0 | 0.00 | 0.00 | 0.00 | 67 | 1006.1 |
| 20260504182606 | 61 | 299 | 2.6 | 5.2 | 0.00 | 0.00 | 0.00 | 67 | 1006.1 |
| 20260504182105 | 61 | 297 | 1.7 | 6.1 | 0.00 | 0.00 | 0.00 | 67 | 1006.1 |
| 20260504181606 | 61 | 268 | 3.5 | 7.0 | 0.00 | 0.00 | 0.00 | 67 | 1006.1 |
| 20260504180605 | 61 | 287 | 2.6 | 7.0 | 0.00 | 0.00 | 0.00 | 67 | 1006.1 |
| 20260504180104 | 61 | 257 | 2.6 | 5.2 | 0.00 | 0.00 | 0.00 | 67 | 1006.1 |
| 20260504175605 | 61 | 282 | 2.6 | 8.7 | 0.00 | 0.00 | 0.00 | 67 | 1006.1 |
| 20260504175104 | 61 | 264 | 5.2 | 10.4 | 0.00 | 0.00 | 0.00 | 67 | 1006.1 |
| 20260504174604 | 61 | 255 | 4.3 | 7.0 | 0.00 | 0.00 | 0.00 | 67 | 1006.1 |
| 20260504174104 | 61 | 291 | 3.5 | 6.1 | 0.00 | 0.00 | 0.00 | 67 | 1006.0 |
| 20260504173604 | 61 | 273 | 4.3 | 7.0 | 0.00 | 0.00 | 0.00 | 67 | 1006.1 |
| 20260504173105 | 61 | 270 | 2.6 | 6.1 | 0.00 | 0.00 | 0.00 | 67 | 1006.1 |
| 20260504172604 | 62 | 300 | 2.6 | 8.7 | 0.00 | 0.00 | 0.00 | 67 | 1005.8 |
| 20260504172105 | 62 | 281 | 3.5 | 7.8 | 0.00 | 0.00 | 0.00 | 67 | 1005.8 |
| 20260504171605 | 61 | 283 | 3.5 | 8.7 | 0.00 | 0.00 | 0.00 | 68 | 1005.8 |
| 20260504171106 | 61 | 266 | 2.6 | 10.4 | 0.00 | 0.00 | 0.00 | 69 | 1005.8 |
| 20260504170605 | 61 | 258 | 4.3 | 8.7 | 0.00 | 0.00 | 0.00 | 68 | 1005.8 |
| 20260504170104 | 61 | 276 | 4.3 | 7.8 | 0.00 | 0.00 | 0.00 | 67 | 1005.8 |
| 20260504151104 | 58 | 153 | 0.0 | 2.6 | 0.00 | 0.00 | 0.00 | 82 | 1005.8 |
| 20260504150604 | 57 | 154 | 0.9 | 5.2 | 0.00 | 0.00 | 0.00 | 83 | 1005.8 |
| 20260504141104 | 52 | 67 | 0.9 | 1.7 | 0.00 | 0.00 | 0.00 | 90 | 1005.4 |
| 20260504140605 | 52 | 90 | 0.0 | 1.7 | 0.00 | 0.00 | 0.00 | 90 | 1005.4 |
| 20260504140104 | 52 | 90 | 0.0 | 0.9 | 0.00 | 0.00 | 0.00 | 90 | 1005.4 |